Regional Weather Roundup
Issued by NWS Sioux Falls, SD

Home | Current Version | Previous Version | Graphics & Text | Print | Product List | Glossary Off
Versions: 1 2 3 4 5 6 7 8 9 10 11 12 13 14 15 16 17 18 19 20 21 22 23 24 25 26 27 28 29 30 31 32 33 34 35 36 37 38 39 40 41 42 43 44 45 46 47 48 49 50

000
ASUS43 KFSD 261010
RWRFSD

WEATHER ROUNDUP FOR SE SOUTH DAKOTA/SW MINNESOTA/NW IOWA
NATIONAL WEATHER SERVICE SIOUX FALLS SD
500 AM CDT THU MAR 26 2015

NOTE: "FAIR" INDICATES FEW OR NO CLOUDS BELOW 12,000 FEET WITH NO
SIGNIFICANT WEATHER AND OR OBSTRUCTIONS TO VISIBILITY.


SDZ038>040-050-052>070-261100-
SOUTHEAST SOUTH DAKOTA

CITY           SKY/WX    TMP DP  RH WIND       PRES   REMARKS
CHAMBERLAIN    CLEAR     18  15  90 SW3       30.19F
HURON          CLEAR     17  13  84 W7        30.18F WCI   8
MADISON        FAIR      23  23 100 NW8       30.15F WCI  14
MITCHELL       CLEAR     22  16  78 W8        30.21F WCI  12
SIOUX FALLS    MOCLDY    27  21  78 W7        30.17F WCI  19
WINNER         FAIR      20  13  74 S5        30.19F WCI  13
YANKTON        CLEAR     25  18  74 W8        30.21F WCI  16
$$

MNZ071-072-080-081-089-090-097-098-261100-
SOUTHWEST MINNESOTA

CITY           SKY/WX    TMP DP  RH WIND       PRES   REMARKS
FAIRMONT       CLEAR     28  14  54 W13       30.10F WCI  18
JACKSON        MOCLDY    28  21  74 W8        30.13F WCI  20
LUVERNE        MOCLDY    28  23  80 NW6       30.17S WCI  22
MARSHALL       PTCLDY    28  21  74 W8        30.14S WCI  20
MONTEVIDEO     CLEAR     28  25  86 N8        30.15F WCI  20
PIPESTONE      CLOUDY    27  21  80 W3        30.14S
REDWOOD FALLS  CLEAR     31  23  72 NW8       30.13S WCI  23
TRACY          PTCLDY    31  25  80 W6        30.14S WCI  25
WINDOM         PTCLDY    27  21  80 W7        30.13F WCI  19
WORTHINGTON    MOCLDY    25  19  80 W8        30.15S WCI  16
$$

IAZ001>003-012>014-020>022-031-032-NEZ013-014-SDZ071-261100-
NORTHWEST IOWA

CITY           SKY/WX    TMP DP  RH WIND       PRES   REMARKS
CHEROKEE       CLEAR     30  23  77 NW8       30.16S WCI  22
DENISON        CLEAR     28  25  86 CALM      30.14S
ESTHERVILLE    CLEAR     26  21  81 NW10      30.12F WCI  16
LE MARS        CLEAR     25  21  86 NW5       30.19F WCI  19
ORANGE CITY    CLEAR     25  21  86 CALM      30.16F
SHELDON        MOCLDY    27  23  86 W9        30.15F WCI  17
SIOUX CITY     CLEAR     24  18  77 NW6       30.19F WCI  17
SPENCER        CLEAR     26  20  77 NW10      30.15S WCI  16
STORM LAKE     CLEAR     27  21  80 NW14      30.14F WCI  15
$$

ABBREVIATIONS USED IN REMARKS
   TC - TEMPERATURE IN CELSIUS
  WCI - WIND CHILL INDEX
   HX - HEAT INDEX
  VSB - VISIBILITY



USA.gov is the U.S. government's official web portal to all federal, state and local government web resources and services.